STARLINK-33795, 63457

Orbit data source: Space-Track

STARLINK-33795, 63457 is a payload satellite owned by SpaceX/Seattle (US) in LEO that was launched on Fri, 04 Apr 2025 UTC via an FALCON 9 launch vehicle from the Air Force Western Test Range (AFWTR). Payload-class satellites include a variety of spacecraft equipped with specific instruments for various scientific and technological missions. These include communications satellites like Starlink; space stations such as the ISS; scientific satellites like the Hubble; Earth observation satellites from companies like Planet Labs, Umbra, and HawkEye 360; GPS; miniature CubeSats for education and research; and military/defense satellites.

Loading next visibility...
Identifier
63457, 2025-069AA
Orbit
LEO
Country
Flag of USUS
Related business
Manufacturer
SpaceX/Seattle
Mission
Operational Commercial Communications
Bus & Motor
STARLINK V2MO, Unknown motor
Mass
575 kg wet, ~530 kg dry
Launch date (UTC)
2025-04-04 (8 months ago)
Launch vehicle
FALCON 9
Launch site
Air Force Western Test Range (AFWTR)
Object type
Payload
Rocket body
Debris
Shape & HBR
Box + 2 Pan, 17.7 m
Radar Cross Section
36.964 m², Large (>1 m²)

Expand to show TLE details & history
Last TLE update: 20 hours ago

TLE from 20 hours ago
0 STARLINK-33795
1 63457U 25069AA  25348.79233495  .00010236  00000-0  35729-3 0  9992
2 63457  53.1596 177.0141 0001282  95.1544 264.9603 15.30196462 40290
Epoch: 2025-12-14T19:00Z
TLE epoch observation values (Epoch: 2025-12-14T19:00:57.739Z)
Latitude
-0.00004°
Longitude
168.07332°
Altitude
476.203 km
Speed
7.629 km/s
True Right ascension
11h 48m 03s
True Declination
0° 00' 00"
Sunlit
Object was in daylight at epoch
Visualization orbit readout
Latitude
Unknown
Longitude
Unknown
Altitude
Unknown
Speed
Unknown
Apparent Right ascension
Unknown
Apparent Declination
Unknown
Sunlit
N/A
Visualization observer readout
Local Sidereal Time
13:24:35
Azimuth
Unknown
Elevation
Unknown
Doppler factor
Unknown
Orbital elements
Apogee altitude
476.361 km
Perigee altitude
474.603 km
Semi-major axis
6,853.619 km
Eccentricity
0.00013
Inclination
53.1596°
RAAN
177.0141°
Arg. of periapsis
95.1544°
True anomaly
264.94567°
Mean anomaly
264.9603°
Eccentric anomaly
264.95298°
Mean motion
3.82528 °/min
Orbital period
94.11 mins
BSTAR
0.00035729
Loading maneuver chart data...
Computing Atmospheric mass density...
Loading historical data...
Loading historical data...
Loading historical data...
Loading historical data...
Loading historical data...
Loading historical data...
Loading historical data...

Documentation

Showing up to 5 results
|